Time,TemperatureF,DewpointF,PressureIn,WindDirection,WindDirectionDegrees,WindSpeedMPH,WindSpeedGustMPH,Humidity,HourlyPrecipIn,Conditions,Clouds,dailyrainin,SoftwareType,DateUTC
2013-03-19 18:38:00,47.4,36.6,20.07,West,265,5.0,5.0,66,0.93,,,0.66,VWS V13.01,2013-03-19 22:38:00,
2013-03-19 18:45:00,47.0,36.6,20.07,West,271,0.0,6.0,67,0.93,,,0.66,VWS V13.01,2013-03-19 22:45:00,
2013-03-19 18:46:00,46.9,36.5,20.07,West,271,0.0,6.0,67,0.93,,,0.66,VWS V13.01,2013-03-19 22:46:00,
2013-03-19 18:47:00,46.9,36.5,20.07,West,271,0.0,6.0,67,0.93,,,0.66,VWS V13.01,2013-03-19 22:47:00,
2013-03-19 18:50:00,46.7,36.3,21.55,West,271,0.0,6.0,67,0.93,,,0.66,VWS V13.01,2013-03-19 22:50:00,
2013-03-19 18:52:00,46.6,36.2,22.29,West,271,0.0,6.0,67,0.93,,,0.66,VWS V13.01,2013-03-19 22:52:00,
2013-03-19 18:55:00,46.5,36.5,22.29,West,271,0.0,6.0,68,0.93,,,0.66,VWS V13.01,2013-03-19 22:55:00,
2013-03-19 18:57:00,46.4,36.4,22.28,West,271,0.0,6.0,68,0.93,,,0.66,VWS V13.01,2013-03-19 22:57:00,
2013-03-19 18:58:00,46.4,36.4,22.28,West,271,0.0,6.0,68,0.93,,,0.66,VWS V13.01,2013-03-19 22:58:00,
2013-03-19 19:01:00,46.3,36.3,22.28,West,271,0.0,6.0,68,0.93,,,0.66,VWS V13.01,2013-03-19 23:01:00,
2013-03-19 19:02:00,46.2,36.2,22.28,West,271,1.0,6.0,68,0.93,,,0.66,VWS V13.01,2013-03-19 23:02:00,
2013-03-19 19:03:00,46.2,36.2,22.28,West,271,0.0,6.0,68,0.93,,,0.66,VWS V13.01,2013-03-19 23:03:00,
2013-03-19 19:06:00,46.1,36.1,22.28,West,271,0.0,2.0,68,0.92,,,0.66,VWS V13.01,2013-03-19 23:06:00,
2013-03-19 19:07:00,46.0,36.0,22.22,West,271,0.0,2.0,68,0.92,,,0.66,VWS V13.01,2013-03-19 23:07:00,
2013-03-19 19:09:00,45.9,36.0,24.17,West,271,0.0,2.0,68,0.92,,,0.66,VWS V13.01,2013-03-19 23:09:00,
2013-03-19 19:11:00,45.9,36.0,24.17,West,271,0.0,2.0,68,0.92,,,0.66,VWS V13.01,2013-03-19 23:11:00,
2013-03-19 19:12:00,45.8,35.8,24.17,West,271,0.0,2.0,68,0.92,,,0.66,VWS V13.01,2013-03-19 23:12:00,
2013-03-19 19:14:00,45.8,35.8,24.17,West,271,2.0,2.0,68,0.92,,,0.66,VWS V13.01,2013-03-19 23:14:00,
2013-03-19 19:16:00,45.7,35.8,24.17,West,271,0.0,2.0,68,0.92,,,0.66,VWS V13.01,2013-03-19 23:16:00,
2013-03-19 19:17:00,45.7,35.8,24.17,West,271,0.0,3.0,68,0.92,,,0.66,VWS V13.01,2013-03-19 23:17:00,
2013-03-19 19:19:00,45.7,36.1,24.17,West,271,0.0,3.0,69,0.92,,,0.66,VWS V13.01,2013-03-19 23:19:00,
2013-03-19 19:22:00,45.6,36.4,24.17,West,271,0.0,3.0,70,0.92,,,0.66,VWS V13.01,2013-03-19 23:22:00,
2013-03-19 19:24:00,45.5,36.3,24.17,West,271,0.0,3.0,70,0.92,,,0.66,VWS V13.01,2013-03-19 23:24:00,
2013-03-19 19:27:00,45.5,36.7,24.17,West,271,0.0,3.0,71,0.92,,,0.66,VWS V13.01,2013-03-19 23:27:00,
2013-03-19 19:29:00,45.4,36.6,24.17,West,271,0.0,3.0,71,0.92,,,0.66,VWS V13.01,2013-03-19 23:29:00,
2013-03-19 19:32:00,45.3,36.5,24.17,West,271,0.0,3.0,71,0.92,,,0.66,VWS V13.01,2013-03-19 23:32:00,
2013-03-19 19:34:00,45.3,36.5,24.17,West,271,0.0,3.0,71,0.92,,,0.66,VWS V13.01,2013-03-19 23:34:00,
2013-03-19 19:37:00,45.1,36.3,24.17,West,271,0.0,3.0,71,0.92,,,0.66,VWS V13.01,2013-03-19 23:37:00,
2013-03-19 19:39:00,45.0,36.2,24.17,West,271,0.0,3.0,71,0.92,,,0.66,VWS V13.01,2013-03-19 23:39:00,
2013-03-19 19:42:00,45.0,36.5,24.17,West,271,0.0,3.0,72,0.92,,,0.66,VWS V13.01,2013-03-19 23:42:00,
2013-03-19 19:44:00,45.0,36.5,24.17,West,271,0.0,3.0,72,0.92,,,0.66,VWS V13.01,2013-03-19 23:44:00,
2013-03-19 19:48:00,44.7,35.9,24.17,NNW,334,4.0,7.0,71,0.92,,,0.66,VWS V13.01,2013-03-19 23:48:00,
2013-03-19 19:49:00,44.6,35.8,24.17,NNW,347,6.0,7.0,71,0.92,,,0.66,VWS V13.01,2013-03-19 23:49:00,
2013-03-19 19:54:00,44.3,35.5,24.17,NNW,340,0.0,8.0,71,0.92,,,0.66,VWS V13.01,2013-03-19 23:54:00,
2013-03-19 20:00:00,43.9,35.8,24.17,NNW,340,0.0,8.0,73,0.92,,,0.66,VWS V13.01,2013-03-20 00:00:00,